Location: Unspecified
(0.0000°N, 0.0000°E)
Time: 20:00:16
(UTC+00:00)

DMSP 5D-2 F13 DEB - Pass Details

Date: 15 March 2026
Orbit: 780 x 797 km, 98.7° (Epoch: 11 April)

Event Time Altitude Azimuth Distance (km) Brightness Sun altitude
Rises 18:57:38 0° 162° (SSE) 3,267 ? -12.2°
Reaches altitude 10° 18:59:58 10° 159° (SSE) 2,339 ? -12.8°
Maximum altitude 19:05:05 66° 77° (ENE) 852 ? -14.1°
Drops below altitude 10° 19:10:12 10° 356° (N) 2,340 ? -15.3°
Sets 19:12:32 0° 353° (N) 3,269 ? -15.9°
